This demonstration page uses our WeatherBlox Daily Observations layout. Learn more.

Hourly Observations for February 26, 2017

Temp ( °F °C ) Dew Point ( °F °C ) Humidity (%) Winds ( mph kmh ) Pressure ( in mb ) Visibility ( mi km ) Precip ( " mm )
12:54 am 00:54 Mostly Cloudy 32 0 27 -2.8 82 82 SW 8 13 29.94 1014 10 16.0934 0 0
1:54 am 01:54 Cloudy 33 0.6 25 -3.9 72 72 SW 10 17 29.93 1014 10 16.0934 0 0
2:54 am 02:54 Clear 35 1.7 22 -5.6 59 59 SW 10 17 29.92 1013 10 16.0934 0 0
3:54 am 03:54 Clear 34 1.1 22 -5.6 61 61 WSW 10 17 29.92 1013 10 16.0934 0 0
4:54 am 04:54 Clear 32 0 22 -5.6 66 66 SW 10 17 29.91 1013 10 16.0934 0 0
5:54 am 05:54 Clear 30 -1.1 21 -6.1 69 69 SW 9 15 29.92 1013 10 16.0934 0 0
6:54 am 06:54 Clear 30 -1.1 21 -6.1 69 69 W 7 11 29.94 1014 10 16.0934 0 0
7:54 am 07:54 Sunny 31 -0.6 20 -6.7 64 64 W 10 17 29.96 1015 10 16.0934 0 0
8:54 am 08:54 Sunny 34 1.1 20 -6.7 56 56 WSW 9 15 29.98 1015 10 16.0934 0 0
9:54 am 09:54 Sunny 36 2.2 22 -5.6 57 57 WSW 10 17 29.99 1016 10 16.0934 0 0
10:54 am 10:54 Sunny 38 3.3 20 -6.7 48 48 W 8 13 30.01 1016 10 16.0934 0 0
11:54 am 11:54 Sunny 40 4.4 21 -6.1 47 47 W 8 13 30 1016 10 16.0934 0 0
12:54 pm 12:54 Sunny 42 5.6 23 -5 47 47 W 6 9 29.99 1016 10 16.0934 0 0
1:54 pm 13:54 Sunny 43 6.1 22 -5.6 43 43 WSW 8 13 29.97 1015 10 16.0934 0 0
2:54 pm 14:54 Sunny 45 7.2 22 -5.6 40 40 VRB 3 6 29.96 1014 10 16.0934 0 0
3:54 pm 15:54 Sunny 46 7.8 24 -4.4 42 42 VRB 6 9 29.96 1015 10 16.0934 0 0
4:54 pm 16:54 Sunny 45 7.2 24 -4.4 44 44 N 6 9 29.97 1015 10 16.0934 0 0
5:54 pm 17:54 Sunny 41 5 23 -5 49 49 NNE 3 6 29.99 1016 10 16.0934 0 0
6:54 pm 18:54 Clear 33 0.6 23 -5 66 66 ENE 5 7 30.01 1016 10 16.0934 0 0
7:54 pm 19:54 Clear 32 0 23 -5 69 69 Calm 30.02 1017 10 16.0934 0 0
8:54 pm 20:54 Clear 29 -1.7 22 -5.6 75 75 Calm 30.03 1017 10 16.0934 0 0
9:54 pm 21:54 Clear 30 -1.1 23 -5 75 75 Calm 30.04 1017 10 16.0934 0 0
10:54 pm 22:54 Clear 28 -2.2 22 -5.6 78 78 SSE 3 6 30.04 1017 10 16.0934 0 0
11:54 pm 23:54 Clear 22 -5.6 20 -6.7 92 92 N 3 6 30.04 1017 10 16.0934 0 0

Powered by AerisWeather